Wind_Speed
7 9 8 7 6 5 4 4 4 4 5 5 5 4 4 5 4 4 4 5 6 6 5 4 4 4 3 4 5 4 3 2 2 4 4 2 4 5 5 5 5 5 5 5 5 5 5 4 4 4 5 5 6 6 6 6 7 8 9 9 9 10 9 9 9 10 9 9 9 10 10 10 10 9 8 6 5 4 4 4 4 4 5 6 6
6 7 6 6 6 6 5 5 4 4 5 5 4 3 4 5 3 4 5 6 7 6 6 5 4 4 5 6 6 5 3 3 2 3 4 3 4 5 5 5 5 5 5 5 5 5 5 5 4 5 5 5 6 7 7 8 8 8 8 8 9 10 10 11 11 11 11 11 11 11 10 10 9 8 7 6 4 3 3 3 4 5 6 7 7
5 5 5 5 6 7 7 6 5 5 6 6 3 3 5 5 4 4 5 6 7 6 5 5 4 4 6 7 7 5 3 2 2 3 3 3 4 5 5 5 5 5 5 5 5 5 5 5 6 6 6 6 7 7 8 9 9 9 8 8 9 10 11 12 12 12 11 11 11 10 10 9 8 7 6 5 3 3 4 5 7 7 7 8 7
4 3 3 5 6 7 6 6 5 3 4 3 2 3 5 5 5 5 4 5 6 5 4 4 4 5 6 8 8 6 4 2 2 2 3 3 4 5 5 5 5 5 5 4 4 5 6 5 6 6 6 7 8 9 10 10 10 10 9 9 10 11 11 12 12 12 11 11 10 10 9 8 8 6 5 4 4 5 7 8 9 9 8 8 8
4 4 4 6 6 5 5 5 5 3 3 3 2 3 4 5 5 5 5 4 4 4 4 4 4 6 7 8 8 6 4 3 3 3 3 3 4 5 5 5 5 4 4 4 4 6 7 6 6 6 7 8 10 10 11 11 10 10 10 10 11 12 12 12 12 12 11 10 10 9 9 8 7 6 5 6 8 9 10 10 10 9 8 8 7
5 4 4 5 6 5 3 4 4 4 3 4 4 4 4 5 5 5 5 4 3 4 5 6 7 7 8 8 6 5 4 2 2 3 2 3 4 4 5 5 5 4 4 4 3 6 8 7 6 7 8 10 11 11 12 12 11 11 12 12 13 13 13 12 12 11 11 10 9 9 8 7 6 6 8 10 11 11 11 10 9 8 7 7 7
5 4 4 5 6 6 4 4 5 5 4 4 4 6 6 5 4 4 4 4 5 6 7 7 7 7 7 6 5 4 3 3 2 2 2 3 3 5 5 4 4 5 5 4 3 4 6 6 6 8 10 11 11 11 11 12 12 12 14 14 15 14 13 13 12 11 10 10 9 8 7 6 7 9 11 12 12 11 9 8 7 6 6 6 6
5 4 3 4 5 6 6 5 6 6 6 5 6 8 7 5 6 5 5 5 5 6 6 6 7 6 6 5 5 4 3 3 2 1 2 3 3 5 6 5 4 5 5 4 3 2 4 5 6 8 10 10 10 11 11 12 13 14 15 15 15 14 13 12 11 10 9 9 8 7 6 8 10 11 12 11 10 9 7 6 6 6 6 6 7
4 4 3 3 3 4 5 5 5 6 6 6 7 9 9 7 6 6 5 5 5 5 5 6 6 5 5 4 4 5 3 3 2 1 3 3 2 4 5 6 6 5 5 5 4 4 5 6 7 9 10 10 10 11 11 12 13 15 15 14 13 12 11 11 10 10 9 7 6 6 8 10 11 12 11 10 9 7 6 6 6 6 6 7 7
4 4 4 3 2 2 3 3 4 6 6 6 7 8 8 7 6 6 6 5 4 4 4 4 5 4 4 4 4 5 4 2 2 2 4 4 2 2 4 6 7 6 6 5 5 6 7 7 8 10 10 11 11 11 11 11 13 14 14 13 12 11 10 10 10 9 8 7 7 8 10 11 12 11 10 9 8 7 6 6 6 6 6 7 7
4 4 4 3 2 2 1 2 3 5 6 6 6 6 7 6 6 6 5 4 3 2 3 3 3 3 3 3 3 4 4 3 3 2 4 4 4 2 2 4 4 4 4 5 6 9 11 10 10 10 11 12 12 11 10 11 12 13 12 12 11 10 10 9 9 8 8 8 9 10 11 11 11 10 9 8 7 6 6 5 6 5 5 6 6
4 4 4 3 2 2 2 1 2 4 5 5 4 5 5 4 4 5 4 2 2 1 1 2 2 2 2 2 1 2 3 3 3 3 3 4 3 1 2 4 5 4 4 5 7 12 15 14 13 11 10 10 11 12 11 11 11 11 11 11 10 10 9 9 9 9 9 9 10 11 11 11 10 9 7 6 5 5 5 5 5 4 4 4 5
4 4 3 2 2 2 2 2 1 2 3 3 3 4 4 3 4 4 3 2 2 2 3 3 2 2 2 1 1 1 2 2 2 2 2 2 1 1 3 5 6 6 5 5 8 13 17 17 15 13 12 11 11 12 11 11 11 10 10 9 9 8 8 8 9 10 10 11 11 11 10 9 8 7 6 5 4 4 4 4 4 4 4 4 5
4 3 2 1 1 1 2 3 2 0 2 2 3 3 4 4 4 4 3 3 4 4 4 4 3 2 2 1 1 1 2 1 3 3 2 2 1 2 4 6 6 7 8 9 13 16 17 16 15 13 12 12 12 12 11 11 11 10 9 9 8 8 8 8 9 11 11 11 11 10 9 8 7 5 4 4 3 3 3 3 3 4 4 4 5
4 3 2 1 1 2 3 5 4 2 2 3 4 4 5 5 5 5 5 5 5 5 5 4 3 2 3 1 1 3 1 1 3 4 5 3 2 4 6 8 8 11 13 15 17 17 16 15 13 12 11 12 12 12 12 11 10 9 9 8 8 8 8 9 10 11 11 11 9 8 7 6 5 4 3 2 2 1 2 2 3 4 4 5 5
3 2 1 1 1 2 4 6 6 4 4 4 5 6 5 5 7 7 7 6 6 5 5 4 2 2 3 3 2 4 4 3 4 5 6 5 4 6 9 11 13 15 18 18 17 17 15 14 12 12 12 13 13 12 12 11 10 9 8 8 8 8 9 10 11 11 11 10 8 7 6 5 4 3 2 1 1 0 1 2 3 4 4 5 5
3 2 1 1 2 3 5 6 6 6 5 5 5 6 6 5 7 7 7 6 6 5 4 3 2 2 3 4 4 5 7 6 5 5 6 6 7 9 12 15 17 19 19 18 17 16 15 13 12 12 12 13 13 12 11 10 10 9 9 9 9 9 10 11 11 11 10 9 8 7 5 4 3 2 1 1 0 0 1 2 3 4 4 4 5
3 2 2 2 1 3 5 6 6 7 6 6 5 5 6 6 6 7 7 7 7 6 4 3 3 3 4 5 6 7 8 8 7 7 6 7 8 12 16 19 20 20 19 19 17 16 15 14 13 13 13 12 12 11 10 9 9 9 9 9 10 10 11 12 11 11 10 9 8 7 5 4 2 2 1 1 1 0 1 2 2 3 3 3 3
4 2 2 2 1 3 4 5 5 6 7 6 5 5 6 7 6 7 7 8 8 7 7 7 6 4 5 6 7 8 9 10 10 10 9 9 10 12 17 20 20 20 19 18 17 16 15 14 13 13 13 12 11 10 9 9 9 9 9 10 11 11 11 11 10 10 9 9 8 7 6 4 3 1 1 1 1 0 1 1 2 2 2 2 2
4 2 2 1 1 3 3 3 3 4 5 6 5 4 5 5 5 6 7 8 8 7 9 11 11 7 6 7 9 10 11 12 12 13 13 12 13 14 16 18 18 18 18 17 16 15 14 14 14 14 13 12 11 10 9 9 10 10 11 11 11 11 10 10 10 9 9 8 8 7 6 5 3 1 1 0 0 1 1 1 2 2 2 1 1
4 3 1 1 1 1 2 2 2 3 4 5 3 2 3 3 4 6 6 8 8 9 10 12 13 10 8 9 11 12 13 14 13 14 15 15 16 16 16 17 17 16 16 15 14 14 14 14 14 14 13 12 11 10 10 10 11 11 11 11 11 10 10 9 9 9 9 9 8 8 6 5 3 2 1 1 2 2 3 3 3 2 1 1 1
5 3 1 1 1 1 1 2 2 2 2 2 1 1 3 4 6 8 8 9 10 12 12 13 14 12 10 11 13 14 15 15 15 16 16 17 16 16 16 16 16 15 14 14 14 14 14 14 14 13 12 12 11 10 11 11 11 11 11 11 10 10 9 9 9 9 9 9 9 8 7 5 4 3 3 3 5 5 5 5 4 3 2 2 2
4 4 2 2 2 2 2 2 2 1 1 1 0 1 4 7 8 10 11 11 13 14 15 15 15 13 12 13 15 16 16 16 16 17 17 16 16 16 16 16 16 15 14 13 13 14 14 14 13 13 12 11 11 11 11 11 11 11 10 10 10 10 10 10 10 10 10 10 10 9 8 6 5 5 6 6 7 7 6 6 5 4 3 2 2
4 5 4 3 4 4 3 3 3 3 3 3 3 3 6 9 9 11 12 13 15 16 17 16 15 14 13 14 16 16 16 16 17 17 17 16 16 16 16 16 15 15 14 14 14 14 13 13 13 13 12 11 11 11 11 11 11 10 10 10 10 10 10 11 11 11 11 11 11 10 9 7 7 7 8 8 9 8 7 7 6 5 3 2 2
4 5 5 5 5 5 4 5 5 5 5 4 4 5 8 9 10 12 13 14 16 17 17 16 16 15 15 16 16 16 16 16 17 16 16 16 16 15 15 15 15 15 15 14 14 13 13 13 13 12 11 11 11 11 11 11 11 11 11 11 11 11 12 12 12 12 12 12 11 11 10 9 9 9 9 9 9 9 8 7 6 5 4 3 3
4 5 6 5 5 6 6 6 6 6 6 6 5 6 8 10 11 13 13 15 17 17 17 17 17 16 17 17 17 17 16 17 16 16 15 15 15 15 14 15 15 15 15 14 14 13 13 13 13 11 10 10 11 11 11 11 11 11 11 11 12 12 13 13 13 12 12 12 12 11 10 10 10 10 10 10 10 9 9 8 7 5 5 5 5
4 4 5 5 6 8 8 8 7 6 6 6 6 7 10 12 13 14 15 16 17 17 16 17 17 17 17 18 17 17 17 16 16 16 15 15 15 14 14 14 15 15 14 14 14 14 13 13 12 11 11 11 11 11 11 12 12 12 12 12 12 12 13 13 12 12 12 12 12 11 10 10 10 10 10 10 10 10 9 8 8 7 7 7 7
4 4 5 6 7 9 10 10 9 8 7 7 8 9 11 13 14 15 16 16 16 16 16 17 17 18 18 18 18 17 17 16 16 15 14 14 14 13 13 13 14 14 14 14 14 14 13 13 12 12 12 12 12 12 13 13 13 13 12 12 12 12 12 12 12 12 11 11 11 10 10 10 10 10 11 11 11 11 10 9 9 8 8 8 8
5 5 6 7 7 9 11 12 12 10 10 9 10 11 13 13 14 15 16 16 16 16 17 18 18 18 18 18 18 17 17 16 15 14 14 14 14 13 13 13 14 14 13 13 13 13 13 13 13 12 13 13 13 14 14 14 14 13 12 12 12 11 11 12 12 11 11 10 10 10 10 10 10 11 11 12 12 11 10 10 9 9 9 9 9
6 7 7 8 8 8 10 12 12 12 12 11 11 12 13 13 14 15 15 15 16 17 18 18 18 18 18 18 18 17 16 15 15 14 14 14 14 14 13 13 13 13 13 13 13 13 13 14 14 13 14 14 15 15 15 15 14 13 12 11 11 11 11 11 11 11 10 10 10 10 10 10 11 11 11 12 12 11 11 10 10 9 9 9 8
7 8 9 9 9 9 9 11 12 12 12 12 12 13 13 13 14 15 16 16 17 18 18 18 18 18 18 17 17 16 15 14 14 13 13 14 14 13 13 13 13 13 13 13 13 13 15 15 15 15 15 15 16 15 15 14 14 12 11 10 10 10 11 11 11 11 11 10 10 10 10 10 11 12 12 12 12 12 11 11 11 10 10 9 8
8 10 11 11 10 10 10 11 12 12 12 13 13 14 14 15 15 16 17 17 17 17 17 17 17 17 16 16 15 15 14 13 13 12 12 12 13 13 13 13 13 13 13 14 15 15 16 17 16 16 16 16 16 16 15 14 13 11 10 10 10 10 10 10 11 11 11 10 10 10 9 10 11 12 12 12 13 12 12 11 11 11 10 9 9
10 11 12 12 11 11 11 12 12 12 12 13 13 15 16 16 17 17 17 17 17 17 16 16 15 15 14 13 13 13 12 11 12 12 13 13 14 14 14 15 15 15 16 16 17 17 17 17 17 17 16 16 16 15 14 13 12 11 10 9 9 9 9 9 10 10 10 10 9 9 10 11 12 12 13 13 12 12 11 11 11 10 9 9 9
10 11 12 12 11 11 11 12 13 13 13 13 14 16 17 17 17 17 17 17 16 15 14 14 13 12 11 11 12 11 11 11 13 14 15 16 16 16 16 17 17 17 17 18 18 18 18 18 17 17 16 16 15 14 13 13 12 10 9 8 8 8 9 9 9 10 9 9 9 10 10 12 12 12 13 12 12 12 12 11 11 10 9 9 9
9 11 12 12 12 11 11 13 13 13 14 14 15 16 17 17 17 17 16 15 14 13 12 12 12 11 10 10 12 12 12 13 15 16 16 17 16 17 17 18 18 17 17 18 18 18 18 17 17 16 16 15 14 13 12 12 11 9 8 8 7 8 8 9 9 9 8 8 9 10 11 12 12 12 12 12 12 12 12 11 11 10 10 9 9
9 11 11 11 12 12 12 13 13 14 14 15 15 16 16 17 17 16 15 14 12 11 11 11 11 11 10 11 12 13 14 15 16 16 16 16 16 16 17 17 17 17 17 17 17 17 17 16 15 15 14 14 13 12 11 10 9 8 7 7 7 7 7 8 8 7 7 8 9 9 10 11 11 12 12 11 11 12 11 11 10 10 10 10 9
10 11 12 12 11 12 13 13 13 14 14 15 16 17 17 17 16 15 14 13 12 11 11 10 10 10 11 12 14 15 16 17 16 16 16 16 16 16 16 17 17 17 17 16 16 16 16 15 14 13 13 13 12 11 10 9 7 7 6 5 6 6 6 6 7 7 7 8 8 8 9 10 10 11 11 11 12 12 11 10 10 11 11 10 10
10 10 11 12 12 12 13 13 14 14 15 16 17 17 17 16 15 14 13 12 11 11 10 10 10 10 11 13 15 17 18 17 16 16 15 15 15 16 16 16 16 16 15 15 14 14 14 14 13 12 11 11 10 9 8 7 7 5 5 5 5 5 6 6 6 6 6 7 7 8 8 9 10 10 11 13 13 13 11 11 12 12 12 11 11
10 11 11 12 12 12 13 14 14 15 15 16 17 17 16 16 15 13 13 12 11 10 10 10 10 10 11 13 16 18 18 17 16 16 15 15 15 14 14 14 14 14 14 13 12 12 12 12 12 11 10 9 8 8 7 6 6 5 4 4 5 5 5 5 5 5 6 6 7 8 9 10 11 12 13 14 14 13 12 12 13 13 12 12 12
10 10 10 11 12 13 13 13 14 15 16 16 16 16 15 15 14 13 12 11 10 10 10 10 10 11 11 13 15 16 16 16 15 15 15 14 13 13 12 12 12 12 12 11 11 11 11 10 10 9 8 7 7 6 6 6 5 5 5 4 4 3 3 3 3 4 5 7 8 10 11 12 13 14 14 14 14 13 13 13 13 13 12 12 12
10 10 10 10 11 12 12 13 13 14 15 16 15 14 14 13 12 12 11 11 10 9 9 10 10 11 11 12 13 14 15 14 14 14 14 13 12 11 10 10 10 10 10 10 10 10 10 9 9 8 8 7 6 6 6 5 5 5 4 4 4 3 2 3 3 5 6 8 10 11 12 13 14 14 14 14 14 14 14 14 13 12 12 12 12
11 10 10 10 10 11 12 12 13 14 15 16 15 14 13 12 11 11 10 10 10 9 9 9 9 10 11 11 12 13 13 13 13 13 13 12 11 10 9 8 8 8 8 8 8 8 8 8 8 7 7 6 6 5 5 5 4 4 3 3 3 3 4 5 5 6 8 9 10 11 12 13 12 12 12 13 14 14 13 13 12 12 11 11 12
11 11 10 10 10 11 11 12 13 13 15 15 15 14 13 12 12 11 11 10 10 10 9 9 9 10 10 11 11 12 12 12 12 12 12 11 10 10 9 8 7 8 7 7 7 6 7 7 7 6 6 5 5 5 4 4 3 2 2 3 3 4 5 6 6 7 8 9 10 11 11 11 10 10 11 12 13 14 13 12 11 11 11 12 12
12 11 11 11 11 11 11 11 12 13 14 14 15 15 14 14 13 13 12 11 10 10 9 9 9 9 10 10 10 10 10 10 10 10 10 10 9 9 8 8 7 7 7 6 6 6 5 5 5 5 5 5 5 4 4 3 3 2 1 3 4 4 5 5 6 7 8 9 9 10 9 9 9 10 11 12 13 13 12 11 10 10 11 12 12
11 12 11 11 11 11 11 11 11 12 12 13 14 15 15 15 14 13 12 11 10 10 9 9 8 9 9 9 9 10 9 9 8 8 8 8 9 8 8 8 7 7 7 6 5 5 5 4 4 4 4 4 4 4 3 2 2 1 2 3 4 4 4 4 5 6 8 8 9 9 9 9 10 10 11 11 11 12 11 10 10 11 12 12 13
11 12 12 12 12 11 11 11 11 11 11 12 13 14 14 13 13 12 11 10 9 9 9 9 8 8 8 9 9 9 9 8 8 8 8 8 8 8 8 7 7 7 6 5 5 5 5 4 4 4 3 3 3 3 2 2 2 2 3 3 3 4 4 4 5 7 8 8 9 9 9 10 10 10 10 9 9 10 10 9 10 11 11 12 13
10 11 12 12 12 12 12 12 12 12 11 11 11 12 12 12 12 11 11 10 10 10 10 10 10 9 9 9 8 9 8 8 8 7 7 7 7 7 7 7 7 7 6 5 5 5 4 4 4 4 4 3 3 2 1 1 1 2 2 2 3 4 4 5 7 8 9 9 9 9 9 9 9 9 8 8 8 8 9 9 10 10 11 12 12
10 10 11 11 11 12 12 12 13 12 12 12 11 11 11 11 11 12 12 12 12 12 11 11 11 10 10 9 9 9 8 8 7 7 6 6 6 6 6 6 7 7 7 6 5 5 5 4 4 5 4 4 3 2 1 0 1 2 2 3 3 4 5 6 7 8 9 9 10 10 9 9 9 8 7 7 7 8 8 8 8 9 10 10 10
10 10 10 10 11 11 12 13 13 13 13 13 12 12 11 11 12 12 13 13 13 13 13 12 11 11 10 10 9 9 9 8 8 7 6 6 6 6 6 6 6 6 7 6 5 5 5 5 5 5 5 4 3 1 0 1 2 3 3 3 4 5 6 6 7 7 8 9 9 9 9 8 8 7 7 7 7 7 7 6 7 7 8 9 9
10 10 11 11 11 11 12 12 13 13 13 13 13 12 12 12 12 12 13 13 14 14 13 13 12 11 11 10 10 10 10 9 8 7 7 7 6 6 6 6 6 6 6 6 6 5 5 5 5 4 3 2 1 0 1 2 3 3 3 4 5 5 5 5 6 7 8 8 8 8 8 7 6 5 6 6 6 6 6 6 6 7 8 8 8
9 11 11 11 11 11 12 12 12 13 13 13 13 13 12 12 12 12 12 13 13 14 14 13 12 12 11 11 11 11 11 10 9 9 8 8 7 7 7 7 7 6 7 7 6 6 6 6 5 4 2 1 0 1 2 2 3 3 4 4 4 4 4 4 5 7 7 8 7 7 8 7 6 5 5 5 6 6 7 7 7 7 7 8 8
Wind_Direction
176 181 184 167 167 185 181 200 204 188 182 184 189 192 206 213 222 235 236 238 240 234 218 206 193 183 178 181 172 176 183 145 114 100 100 103 87 82 76 83 98 99 102 107 114 126 130 134 140 136 136 136 125 119 114 108 111 116 119 120 120 119 121 126 128 126 124 120 115 109 105 107 110 113 112 108 102 98 93 90 95 105 108 108 108
187 193 192 169 168 183 190 206 211 208 198 193 192 196 214 212 217 232 233 235 231 223 226 226 212 203 198 188 174 174 164 133 141 119 116 121 102 99 94 98 109 102 102 110 115 125 132 137 144 141 139 129 116 116 118 118 119 118 117 119 122 123 124 128 128 125 122 118 116 112 110 111 114 115 114 111 106 104 102 109 116 119 117 113 112
190 196 189 161 163 185 194 198 210 223 201 191 203 208 208 201 198 208 222 230 219 209 221 229 215 211 206 187 174 170 157 158 164 129 127 128 116 117 115 113 111 111 113 115 121 130 137 143 144 141 135 121 113 115 117 118 119 121 122 123 126 127 126 127 126 124 121 120 118 117 116 118 120 120 118 116 116 122 126 125 123 121 118 116 117
161 168 159 141 152 181 188 188 200 207 189 205 242 212 199 192 193 196 203 218 214 198 201 222 206 187 188 184 179 169 162 178 161 133 140 145 141 133 128 120 115 123 123 122 129 135 139 142 139 133 127 119 117 118 115 113 114 119 122 125 128 128 127 125 124 124 125 125 125 124 124 126 127 125 123 124 131 133 130 127 125 124 124 124 123
127 128 128 132 144 170 180 182 187 181 191 219 209 191 190 182 183 186 196 210 206 181 165 189 179 161 171 183 181 168 165 170 148 144 155 163 159 138 126 121 120 126 126 129 136 140 138 135 131 125 120 115 117 118 115 112 111 115 118 121 124 126 125 124 124 126 129 131 131 131 131 131 131 130 133 136 136 134 132 131 131 131 131 130 127
114 118 123 126 132 148 168 176 171 168 185 194 173 160 165 168 174 183 194 191 171 155 156 165 160 158 171 181 177 163 162 166 145 147 178 187 158 126 119 121 123 123 122 131 143 140 132 126 125 122 116 113 117 118 117 114 112 115 120 122 124 126 126 128 130 132 134 135 135 134 134 134 134 135 137 137 136 135 135 134 132 131 129 127 123
123 126 121 118 125 136 152 165 157 149 153 163 149 138 149 158 158 168 168 148 138 143 153 156 152 157 170 175 169 152 157 169 154 156 209 212 156 124 127 134 131 117 112 124 127 122 118 118 124 124 119 117 119 118 114 112 113 120 125 127 128 130 133 136 138 138 137 135 133 132 132 131 130 132 134 135 135 134 131 127 122 118 114 109 103
126 125 114 113 125 131 144 154 147 139 136 138 132 131 145 153 148 148 144 140 144 147 150 148 147 155 163 170 160 141 153 171 163 182 226 232 178 141 142 144 135 119 116 125 119 112 110 112 118 118 118 119 120 116 112 111 116 124 128 131 133 135 137 138 135 132 129 126 126 127 126 125 127 131 132 132 130 127 120 113 106 101 96 90 85
119 116 109 111 117 124 137 142 135 128 123 123 125 131 143 153 145 138 142 149 153 147 142 137 140 151 157 162 150 136 158 181 159 199 219 232 204 159 153 141 140 139 139 142 138 139 119 109 109 108 111 115 115 113 111 113 118 125 129 131 134 135 133 130 125 121 120 121 122 124 125 125 128 129 129 128 124 118 111 103 97 92 86 81 75
114 111 105 100 98 106 123 128 123 114 108 112 119 125 134 145 139 134 143 151 150 142 140 134 134 142 143 148 148 140 159 179 143 212 222 222 217 182 161 139 141 149 150 155 148 140 127 119 115 112 114 114 112 110 111 116 120 126 129 130 131 130 127 123 121 120 123 124 124 125 125 126 128 129 128 126 121 115 108 101 95 87 81 74 66
112 106 103 93 83 71 81 101 106 103 98 104 114 119 126 135 131 133 146 154 152 143 151 143 136 143 143 147 152 142 154 171 160 215 246 239 231 205 157 126 124 138 142 146 145 136 128 122 117 112 113 115 115 113 113 117 120 125 127 127 126 123 122 120 119 120 121 122 124 125 126 128 130 130 129 125 119 112 104 96 88 80 73 66 56
107 102 97 83 71 45 33 40 75 95 96 106 119 120 124 133 134 143 156 166 166 174 213 181 168 171 163 162 153 148 165 178 162 186 249 265 260 221 107 101 101 113 126 134 136 130 124 120 118 114 109 110 112 112 114 118 120 123 121 119 117 116 116 115 115 114 115 119 123 125 127 129 130 129 127 122 113 103 93 84 76 67 59 50 40
95 93 91 76 56 28 359 331 351 85 96 123 150 136 135 158 160 164 170 188 212 220 238 230 206 178 177 197 159 182 204 175 136 145 204 259 287 78 83 90 99 109 121 125 118 117 118 119 120 116 110 107 108 111 117 119 120 119 114 112 112 111 112 111 110 113 118 121 123 125 127 127 127 126 122 113 100 87 77 65 55 44 34 26 19
104 101 100 81 41 354 303 288 281 127 118 165 205 181 164 182 185 183 186 203 227 229 231 231 219 181 179 213 153 171 244 161 114 117 160 200 201 120 86 85 99 110 117 111 105 106 112 117 118 118 118 117 117 119 119 118 117 115 112 112 110 107 106 107 110 116 119 120 121 122 124 124 123 121 114 104 93 79 65 49 37 25 16 7 1
115 109 102 70 345 298 283 277 267 242 204 205 235 227 189 188 200 195 198 214 226 229 230 228 222 193 175 179 124 134 187 171 124 136 156 170 162 112 87 91 102 106 106 104 105 109 115 120 122 125 127 124 123 123 121 118 116 113 112 109 104 101 103 108 113 115 114 114 115 117 119 121 122 119 115 114 110 86 48 27 16 5 357 347 341
107 91 67 6 317 293 279 273 265 255 236 219 231 242 219 197 208 206 199 208 222 227 230 234 225 195 162 133 122 129 139 152 144 145 146 146 138 107 89 96 102 100 101 104 110 116 122 125 126 130 129 126 125 125 122 119 116 113 112 106 101 104 110 115 115 113 111 112 113 116 119 122 124 126 135 148 144 51 14 4 357 350 340 331 326
93 66 23 359 331 295 278 274 272 268 256 234 223 239 242 213 211 214 200 199 214 220 229 244 218 173 155 133 138 138 132 135 133 131 131 126 113 101 97 101 105 104 107 112 119 123 127 128 128 130 129 127 125 122 121 118 115 111 108 105 107 114 119 118 116 114 113 113 114 114 116 116 121 135 164 187 225 325 353 348 343 332 321 316 316
72 50 1 359 336 282 276 279 282 278 265 246 224 226 244 232 212 207 194 189 198 198 199 201 175 162 150 139 143 135 125 123 117 110 115 109 95 97 104 110 113 114 116 120 124 127 128 127 128 130 128 125 121 120 120 117 111 107 108 112 117 121 121 118 116 114 112 110 108 105 103 104 116 144 173 189 212 265 327 326 316 303 302 305 308
66 38 333 352 321 277 275 284 288 279 264 250 232 216 235 238 217 206 189 177 185 183 174 158 148 152 143 141 137 125 118 118 117 114 114 108 98 99 106 113 117 118 120 121 123 125 125 125 126 126 124 121 120 121 118 112 107 109 115 119 121 120 118 114 110 107 104 101 98 96 95 95 98 113 138 166 205 246 306 308 307 305 309 305 304
70 43 318 353 334 285 279 282 283 268 255 247 233 203 221 232 213 205 183 165 168 165 161 146 136 141 142 139 127 117 116 115 117 118 116 112 106 104 105 111 115 115 115 116 119 120 121 122 122 121 120 120 119 118 113 109 111 116 120 120 119 116 112 106 103 99 96 94 93 93 90 84 76 65 62 199 174 80 45 25 9 359 347 324 326
80 78 339 11 25 285 272 264 257 253 250 245 230 176 193 209 182 174 159 148 145 143 147 135 126 131 137 131 119 114 115 113 114 114 113 112 111 110 110 111 111 110 109 111 113 115 116 117 116 115 115 115 115 111 109 110 114 118 120 118 113 108 104 100 98 94 93 91 90 87 81 72 62 56 70 131 99 82 69 61 49 40 22 1 7
87 95 82 49 108 158 230 237 240 238 244 255 256 157 151 136 143 144 135 132 130 131 133 123 117 122 126 119 113 112 113 114 114 113 113 113 113 113 113 112 111 108 107 108 109 110 111 113 113 112 110 110 109 107 108 111 115 118 117 111 106 102 100 98 96 93 91 88 84 78 72 69 71 88 107 106 94 85 79 72 65 57 45 35 32
94 100 110 138 138 143 176 185 223 218 198 214 104 101 107 111 130 130 125 127 125 124 122 118 117 119 119 114 111 111 113 114 114 114 114 114 114 114 114 114 113 110 109 108 108 109 111 113 113 111 109 108 107 107 109 112 115 115 110 104 102 101 98 96 94 91 87 82 77 74 74 79 92 105 107 101 94 88 84 78 70 60 50 43 30
100 105 117 140 143 145 158 156 177 178 164 160 139 120 106 113 127 124 124 127 124 121 118 120 122 122 120 114 112 113 115 116 115 115 116 116 116 116 116 117 115 111 109 108 108 110 112 113 112 109 109 109 109 109 111 113 112 108 104 102 101 100 97 94 90 85 81 79 78 79 83 92 102 107 104 97 91 87 83 78 69 59 50 38 12
100 109 122 137 141 143 149 147 158 162 159 155 141 126 115 117 122 122 126 128 124 122 122 126 127 126 122 115 113 115 117 117 117 118 119 119 118 118 118 117 113 110 109 109 109 111 112 110 108 107 108 108 110 111 112 110 107 105 103 102 101 99 96 91 86 83 82 83 85 86 90 95 98 97 93 88 83 79 75 69 63 56 45 30 16
106 114 124 132 134 135 140 141 146 152 153 150 135 124 121 121 121 124 129 129 124 123 127 129 127 126 120 116 116 117 118 119 120 122 123 122 120 120 118 115 111 111 112 113 114 114 112 109 107 107 107 109 111 111 111 108 105 102 101 101 99 97 94 91 89 88 89 89 87 87 88 89 88 84 81 79 75 70 66 61 55 46 37 27 21
117 124 127 129 129 132 136 138 143 148 145 140 131 126 125 125 125 129 131 128 123 124 127 126 124 122 118 117 118 118 119 121 123 125 125 123 120 119 116 114 113 114 117 118 117 116 113 111 109 108 109 110 110 109 107 104 101 99 99 99 98 97 96 95 94 92 90 87 84 83 83 81 78 74 71 70 66 61 57 53 47 39 33 27 25
126 130 128 127 128 133 137 140 143 144 142 139 133 132 131 130 131 132 129 124 123 125 125 123 121 119 118 119 119 121 122 123 125 126 126 123 120 119 118 117 117 119 120 119 119 119 117 115 112 112 112 113 112 109 103 99 96 96 97 97 97 97 98 96 93 89 85 82 79 78 75 73 70 66 63 60 57 53 49 46 42 38 32 28 26
132 131 125 123 126 131 135 138 140 141 142 141 138 136 134 133 133 130 125 123 124 125 123 122 121 120 120 121 122 123 124 125 127 127 127 125 123 123 124 123 123 122 120 120 122 123 121 118 116 116 117 117 113 108 103 99 97 97 97 97 98 99 96 93 88 83 78 76 74 71 67 63 61 57 55 54 51 48 45 42 39 36 31 27 25
136 132 125 121 123 126 129 133 135 136 138 139 138 136 132 131 131 127 124 125 125 123 122 121 121 120 121 122 123 123 124 127 130 130 130 128 128 130 129 128 126 125 124 125 126 126 124 122 120 120 119 117 112 108 104 102 100 99 99 99 99 95 90 84 79 74 70 67 66 62 58 56 54 52 51 51 49 45 42 39 36 32 28 25 23
139 134 127 123 122 124 127 129 129 130 134 137 137 135 132 132 133 130 128 127 125 122 120 120 120 120 121 122 122 123 126 131 133 133 133 132 133 133 131 131 131 131 130 130 131 130 128 126 124 122 120 117 112 108 104 103 103 102 100 98 93 86 79 74 70 67 63 59 57 54 53 53 51 48 48 49 46 42 38 35 30 26 24 22 20
141 137 130 126 126 128 130 130 129 130 134 136 136 135 135 137 139 135 131 127 124 121 120 120 120 121 122 124 124 126 131 135 135 135 136 136 135 134 134 135 136 136 135 135 134 132 130 128 126 123 121 117 112 109 107 105 104 102 100 95 87 81 75 69 65 61 57 52 48 46 48 50 49 46 46 45 41 37 33 30 25 21 20 18 17
142 139 135 131 129 132 134 134 134 135 137 138 139 138 139 140 139 133 128 125 123 121 120 119 120 121 124 127 128 129 133 135 135 135 134 133 132 132 134 134 135 136 137 136 134 133 131 129 127 124 121 117 114 113 112 109 105 102 99 92 85 79 71 64 58 54 51 47 41 39 43 46 45 43 40 37 33 28 26 24 20 16 15 14 14
142 142 139 135 133 134 136 136 138 141 142 143 143 140 139 138 134 129 126 125 123 121 120 119 120 123 129 133 131 130 133 133 133 132 130 128 129 131 131 131 133 136 137 136 134 133 131 130 129 126 123 120 120 120 117 113 109 106 101 93 85 77 69 61 54 50 46 40 36 36 40 40 40 39 35 30 26 23 20 19 16 13 14 14 14
138 141 141 139 136 137 137 136 139 143 145 146 144 141 138 134 129 127 125 123 122 121 120 122 125 129 135 136 133 133 134 134 132 130 128 128 130 132 132 132 134 136 136 135 133 133 133 132 132 130 127 126 126 123 119 117 115 112 105 95 84 75 67 60 53 47 41 33 31 33 33 30 32 34 29 25 23 21 18 16 15 14 15 16 16
132 136 140 141 140 139 139 137 139 144 146 147 144 140 136 131 128 127 125 123 121 120 121 124 127 131 133 134 134 135 137 136 134 131 130 131 133 134 134 135 136 136 135 135 134 135 135 136 135 134 132 132 130 127 124 122 119 114 106 96 85 75 66 58 50 44 35 26 25 27 26 22 24 26 22 22 22 20 19 17 16 16 17 17 18
130 134 137 141 143 142 141 138 138 142 144 145 143 139 135 132 130 129 126 123 121 120 120 122 123 126 128 131 134 138 140 139 135 132 132 134 136 137 137 137 138 138 138 137 137 138 139 140 140 140 138 136 134 132 131 128 122 115 106 95 83 71 61 51 41 35 27 18 19 21 20 19 20 20 20 23 22 19 19 19 19 18 18 16 17
130 132 136 140 143 144 144 140 138 141 143 145 143 140 138 136 135 132 129 126 124 122 120 119 118 120 126 132 137 140 142 140 137 135 135 137 139 140 140 141 141 141 141 140 140 142 144 145 146 144 142 139 138 136 135 132 127 121 108 90 73 61 50 39 28 22 12 5 7 11 14 17 19 21 22 22 20 19 21 22 21 18 16 14 15
134 131 135 138 143 146 147 145 143 144 147 147 146 143 141 140 139 136 133 129 127 125 122 117 114 116 124 132 138 142 143 142 141 140 139 139 141 143 144 144 145 145 144 143 144 146 147 148 148 145 143 142 140 137 133 131 129 121 106 86 69 57 45 32 16 3 355 355 1 9 15 18 20 22 20 18 18 20 22 23 20 17 14 13 14
138 132 133 137 142 148 152 153 151 150 151 151 149 147 146 144 142 138 135 131 128 128 124 117 114 116 123 133 140 144 145 145 145 145 143 141 143 147 149 149 150 149 148 149 150 150 150 149 148 144 144 145 145 142 137 135 132 124 114 101 89 75 56 32 8 355 358 6 12 18 19 19 20 20 16 16 18 20 21 20 17 14 13 13 12
145 138 135 136 141 148 155 159 157 154 154 154 153 152 149 146 143 140 136 132 130 129 124 118 117 117 123 133 141 147 150 150 150 149 147 145 146 150 153 154 153 152 154 156 156 156 154 151 148 144 145 150 151 148 143 139 137 132 124 112 100 83 57 31 15 11 13 16 18 21 20 19 18 16 14 17 19 18 18 17 14 11 11 11 8
152 147 143 140 141 146 153 160 162 160 159 159 158 157 154 149 145 142 139 137 136 135 130 125 124 122 126 133 141 148 153 155 156 155 153 152 152 154 155 156 155 156 161 162 159 157 155 152 149 147 150 155 155 152 146 143 141 133 119 100 80 59 37 21 15 16 17 18 19 20 20 18 13 11 15 19 20 18 17 15 12 9 8 6 4
155 155 153 150 147 146 151 158 165 168 166 165 164 163 160 155 152 150 148 147 145 145 142 139 136 132 132 134 138 146 152 157 161 162 159 159 160 160 161 164 165 164 166 164 158 156 156 152 150 153 157 161 157 153 148 145 141 128 106 80 62 47 28 13 9 11 13 15 16 16 15 11 10 14 19 20 20 19 16 15 13 9 6 3 2
157 158 159 160 157 154 154 158 164 171 173 172 170 169 167 165 164 163 161 159 156 155 154 152 148 141 139 137 138 141 146 154 162 165 165 166 168 170 173 177 177 173 173 169 163 160 159 155 155 159 165 167 161 156 155 153 146 134 96 63 54 43 27 13 4 3 7 11 12 11 8 5 11 21 25 22 19 18 17 15 13 9 5 3 4
160 160 163 166 167 165 164 163 164 170 176 178 178 178 177 176 176 175 173 170 164 161 161 160 155 150 147 145 142 140 141 148 157 164 169 173 178 182 185 187 186 185 184 178 170 166 165 166 167 173 177 176 169 165 165 155 137 99 60 47 44 36 25 15 2 1 8 13 11 10 8 10 17 23 26 24 17 17 20 17 11 8 7 7 10
166 162 165 169 173 175 174 173 172 173 178 183 187 188 187 187 187 185 182 180 174 169 167 165 163 163 163 158 151 145 143 148 154 161 167 174 183 190 193 194 193 196 198 191 181 175 172 174 178 187 192 184 176 170 156 126 87 54 43 39 36 30 21 15 10 8 12 16 17 14 13 16 20 21 24 26 20 19 21 17 10 9 10 13 17
174 169 168 171 176 180 181 182 182 182 183 188 194 198 198 196 195 194 191 190 186 181 176 170 171 177 177 171 160 153 152 156 158 160 164 169 178 187 194 198 199 203 206 200 192 187 184 188 191 197 204 201 191 179 158 118 74 51 42 39 36 29 19 14 12 9 10 16 20 18 17 21 23 23 23 25 26 25 21 15 13 13 13 18 21
178 175 173 174 178 182 185 188 190 189 190 193 198 203 206 203 200 201 201 199 196 192 187 182 181 184 185 181 170 164 167 169 169 167 166 168 175 182 190 196 199 203 206 201 194 194 199 205 203 201 206 209 209 203 198 158 48 45 40 34 29 25 19 17 13 10 14 20 20 17 18 19 19 19 19 21 24 27 22 13 12 16 18 19 19
175 176 178 178 182 185 188 191 194 195 194 197 201 203 206 209 208 209 210 209 205 200 197 194 190 188 191 189 179 177 181 183 182 180 177 178 182 187 189 191 194 199 203 201 198 200 207 213 209 204 205 211 218 227 273 356 7 16 22 25 26 24 20 16 14 15 20 23 21 16 15 15 11 8 10 13 14 18 16 9 10 15 18 18 13
177 178 181 182 187 190 191 193 196 199 198 198 203 204 206 211 215 217 219 218 214 209 205 202 198 194 194 194 189 188 191 192 192 190 189 190 191 191 190 188 189 192 196 198 201 207 212 215 212 206 202 205 225 335 16 11 7 12 19 24 25 23 18 13 13 18 21 21 18 13 9 10 10 4 3 5 5 5 4 3 5 9 13 14 8
190 187 184 183 190 194 196 195 197 202 203 201 202 206 209 212 217 223 225 223 219 216 212 208 206 203 199 198 196 196 197 198 198 199 198 198 197 195 191 189 189 188 191 195 201 209 216 218 218 213 203 186 55 26 28 21 14 16 21 23 19 14 13 13 13 16 16 14 12 7 2 3 7 6 7 11 7 3 5 6 5 7 7 7 4
Height
5890 5891 5892 5894 5895 5896 5896 5896 5897 5898 5898 5899 5900 5900 5901 5902 5902 5903 5903 5902 5902 5902 5902 5902 5903 5904 5904 5904 5904 5904 5904 5905 5907 5907 5907 5907 5906 5907 5907 5908 5908 5907 5908 5908 5909 5909 5909 5909 5910 5911 5911 5910 5910 5910 5910 5910 5910 5911 5911 5912 5912 5912 5912 5913 5913 5913 5914 5915 5916 5916 5917 5917 5917 5917 5918 5918 5918 5918 5918 5918 5918 5919 5919 5919 5919
5890 5890 5892 5894 5896 5896 5896 5896 5896 5897 5897 5898 5899 5901 5902 5902 5903 5903 5903 5902 5902 5902 5902 5903 5903 5904 5905 5904 5904 5904 5904 5905 5906 5906 5907 5907 5907 5908 5908 5908 5908 5908 5908 5909 5909 5910 5909 5909 5910 5910 5911 5911 5911 5911 5912 5912 5912 5912 5912 5912 5913 5913 5913 5914 5914 5915 5915 5916 5916 5917 5917 5918 5918 5918 5918 5918 5918 5919 5919 5919 5919 5920 5920 5920 5920
5889 5890 5892 5894 5895 5895 5895 5896 5896 5897 5897 5898 5899 5901 5902 5902 5903 5903 5903 5902 5902 5902 5903 5903 5903 5904 5904 5904 5903 5903 5904 5905 5905 5906 5907 5907 5907 5908 5908 5908 5908 5908 5908 5909 5910 5910 5909 5909 5910 5911 5911 5912 5912 5912 5913 5913 5914 5913 5913 5913 5913 5914 5915 5915 5916 5916 5916 5917 5917 5918 5918 5919 5919 5919 5919 5919 5919 5920 5920 5920 5920 5921 5921 5921 5921
5889 5890 5891 5893 5894 5894 5895 5895 5896 5897 5898 5899 5899 5900 5901 5902 5902 5902 5902 5902 5903 5903 5903 5903 5903 5903 5904 5904 5904 5903 5904 5905 5905 5905 5906 5906 5906 5907 5908 5908 5908 5908 5909 5909 5910 5910 5910 5910 5910 5911 5912 5913 5913 5913 5913 5914 5914 5915 5914 5914 5914 5915 5915 5916 5916 5917 5917 5918 5918 5919 5919 5920 5920 5920 5920 5920 5920 5921 5921 5921 5922 5922 5922 5922 5922
5889 5890 5890 5892 5893 5893 5894 5895 5896 5897 5898 5898 5899 5899 5900 5901 5901 5901 5902 5902 5902 5902 5902 5903 5903 5902 5903 5903 5904 5904 5905 5905 5905 5906 5906 5906 5906 5907 5908 5908 5908 5908 5909 5909 5909 5910 5911 5911 5911 5912 5913 5913 5914 5914 5914 5914 5915 5915 5915 5915 5916 5916 5916 5917 5917 5917 5918 5918 5919 5919 5920 5921 5921 5921 5921 5921 5921 5921 5922 5922 5922 5923 5923 5923 5923
5889 5890 5890 5891 5892 5893 5894 5894 5895 5897 5897 5898 5899 5899 5900 5901 5901 5901 5901 5901 5901 5901 5901 5903 5903 5902 5903 5903 5904 5905 5905 5904 5905 5906 5906 5906 5906 5908 5908 5908 5908 5909 5909 5909 5909 5910 5911 5912 5912 5912 5912 5913 5914 5914 5915 5915 5915 5915 5916 5916 5917 5917 5917 5917 5918 5918 5918 5919 5920 5920 5921 5921 5921 5922 5922 5922 5922 5922 5922 5923 5923 5923 5923 5923 5923
5890 5890 5890 5890 5892 5894 5894 5894 5895 5898 5898 5898 5899 5900 5900 5901 5901 5901 5901 5901 5901 5901 5902 5903 5903 5903 5903 5904 5904 5905 5905 5904 5904 5906 5906 5906 5907 5908 5909 5908 5908 5909 5909 5909 5909 5909 5910 5911 5912 5912 5911 5912 5913 5914 5915 5915 5916 5916 5916 5916 5917 5917 5918 5918 5918 5919 5919 5920 5921 5921 5922 5922 5922 5922 5922 5922 5922 5923 5923 5923 5923 5924 5924 5924 5923
5891 5890 5890 5891 5893 5895 5895 5895 5896 5899 5900 5899 5900 5901 5901 5901 5901 5901 5901 5901 5901 5902 5903 5903 5902 5903 5903 5904 5905 5905 5905 5904 5905 5905 5905 5906 5907 5909 5909 5909 5908 5909 5910 5909 5909 5908 5909 5910 5911 5911 5910 5910 5912 5913 5914 5915 5916 5916 5917 5917 5917 5918 5918 5919 5919 5919 5920 5921 5922 5922 5922 5922 5922 5922 5923 5923 5923 5923 5924 5924 5924 5924 5924 5924 5923
5891 5891 5891 5891 5893 5894 5895 5896 5897 5898 5899 5899 5900 5901 5901 5901 5901 5901 5901 5901 5901 5901 5902 5902 5902 5903 5903 5903 5904 5905 5904 5904 5905 5905 5905 5905 5907 5909 5910 5910 5910 5911 5911 5911 5910 5909 5908 5909 5910 5910 5910 5910 5911 5912 5913 5915 5916 5917 5917 5918 5918 5919 5919 5920 5920 5920 5921 5922 5922 5922 5922 5922 5923 5923 5924 5924 5924 5924 5924 5924 5924 5924 5924 5924 5924
5892 5892 5892 5892 5893 5894 5894 5895 5896 5897 5898 5899 5900 5901 5901 5901 5901 5901 5901 5901 5901 5901 5901 5901 5902 5902 5903 5903 5904 5905 5904 5905 5905 5905 5904 5904 5905 5908 5909 5910 5911 5912 5912 5912 5911 5910 5909 5909 5909 5910 5911 5911 5912 5913 5913 5915 5916 5917 5918 5918 5919 5920 5920 5921 5921 5921 5922 5922 5922 5923 5923 5923 5924 5924 5924 5925 5925 5925 5925 5925 5924 5924 5924 5924 5924
5893 5893 5893 5893 5893 5893 5894 5895 5896 5897 5898 5899 5900 5901 5902 5901 5901 5901 5901 5901 5901 5901 5901 5901 5902 5902 5902 5902 5903 5905 5904 5904 5905 5904 5904 5903 5904 5906 5908 5909 5910 5911 5911 5911 5911 5911 5910 5910 5910 5910 5911 5912 5913 5914 5914 5915 5916 5918 5918 5919 5920 5921 5921 5922 5922 5922 5923 5923 5923 5923 5924 5924 5924 5925 5925 5925 5925 5925 5925 5925 5925 5924 5924 5924 5924
5893 5893 5893 5893 5893 5893 5894 5894 5895 5897 5898 5898 5899 5900 5901 5901 5901 5901 5901 5901 5901 5901 5901 5901 5902 5902 5902 5902 5903 5904 5904 5904 5905 5905 5904 5903 5904 5905 5906 5908 5909 5909 5910 5910 5910 5911 5911 5911 5911 5911 5911 5912 5913 5914 5915 5916 5917 5918 5919 5920 5921 5921 5922 5922 5922 5923 5923 5924 5924 5924 5924 5925 5925 5925 5925 5925 5926 5926 5925 5925 5925 5924 5924 5924 5924
5894 5894 5893 5893 5893 5893 5893 5893 5895 5897 5898 5898 5898 5899 5901 5901 5901 5902 5901 5901 5901 5900 5900 5901 5902 5901 5901 5901 5902 5903 5903 5904 5905 5904 5904 5903 5904 5905 5906 5907 5908 5908 5909 5909 5909 5909 5911 5912 5913 5913 5912 5913 5913 5914 5916 5917 5918 5919 5920 5921 5921 5922 5922 5923 5923 5924 5924 5924 5925 5925 5925 5925 5925 5926 5926 5926 5926 5926 5926 5925 5925 5925 5924 5924 5923
5894 5894 5894 5894 5894 5893 5893 5893 5894 5897 5898 5897 5896 5898 5901 5901 5902 5902 5902 5901 5900 5899 5900 5900 5901 5901 5901 5901 5901 5902 5902 5903 5905 5905 5905 5904 5904 5905 5906 5907 5907 5908 5908 5908 5908 5909 5910 5912 5913 5914 5914 5914 5915 5916 5917 5918 5919 5920 5920 5921 5922 5922 5923 5923 5924 5924 5925 5925 5925 5926 5926 5926 5926 5926 5927 5927 5927 5926 5926 5926 5925 5925 5924 5924 5923
5895 5894 5894 5894 5894 5894 5893 5893 5894 5896 5898 5897 5895 5896 5900 5901 5901 5902 5901 5900 5899 5898 5898 5899 5900 5901 5901 5901 5901 5902 5903 5902 5904 5906 5906 5905 5905 5906 5907 5907 5908 5908 5908 5908 5909 5911 5912 5913 5914 5915 5915 5916 5916 5917 5918 5919 5920 5920 5921 5922 5922 5923 5923 5924 5924 5924 5925 5925 5926 5926 5927 5927 5927 5927 5927 5927 5927 5927 5926 5926 5925 5925 5924 5923 5922
5895 5895 5894 5895 5895 5894 5894 5893 5893 5895 5897 5897 5896 5895 5898 5900 5901 5901 5901 5900 5899 5898 5898 5899 5900 5900 5900 5901 5901 5902 5903 5902 5903 5905 5906 5906 5906 5907 5907 5907 5907 5908 5908 5909 5911 5912 5913 5915 5915 5916 5916 5917 5917 5918 5919 5920 5920 5921 5922 5922 5923 5923 5924 5924 5925 5925 5925 5926 5926 5927 5927 5928 5928 5928 5928 5928 5927 5927 5926 5926 5925 5924 5924 5923 5922
5896 5895 5895 5895 5895 5895 5894 5893 5893 5893 5894 5897 5897 5896 5897 5899 5900 5901 5901 5900 5900 5899 5899 5899 5900 5900 5900 5901 5902 5902 5902 5902 5902 5903 5904 5905 5906 5907 5908 5908 5908 5908 5910 5911 5913 5914 5915 5916 5916 5917 5917 5918 5918 5919 5920 5920 5921 5922 5922 5923 5924 5924 5925 5925 5926 5926 5926 5926 5927 5927 5928 5928 5929 5928 5928 5928 5927 5927 5926 5925 5925 5924 5923 5922 5922
5896 5896 5895 5895 5896 5895 5894 5893 5893 5892 5892 5895 5897 5897 5896 5897 5899 5900 5901 5901 5901 5900 5899 5899 5901 5901 5900 5901 5902 5901 5902 5902 5902 5901 5902 5903 5905 5906 5908 5909 5910 5911 5912 5913 5914 5915 5916 5917 5917 5918 5918 5919 5920 5921 5921 5921 5922 5922 5923 5924 5925 5925 5926 5926 5927 5927 5927 5927 5928 5928 5929 5929 5929 5929 5928 5928 5927 5927 5926 5925 5925 5924 5923 5923 5922
5897 5896 5895 5895 5896 5894 5894 5893 5893 5892 5891 5892 5895 5897 5896 5895 5897 5898 5899 5900 5900 5900 5899 5899 5900 5901 5901 5902 5902 5901 5902 5902 5903 5903 5903 5903 5903 5905 5907 5909 5911 5912 5914 5915 5915 5916 5917 5917 5918 5919 5920 5921 5921 5922 5922 5922 5923 5923 5924 5925 5926 5926 5927 5927 5927 5927 5927 5928 5928 5929 5929 5929 5929 5929 5928 5928 5927 5926 5926 5925 5925 5924 5924 5923 5923
5897 5896 5894 5895 5896 5894 5894 5893 5893 5892 5891 5891 5894 5896 5896 5896 5896 5898 5898 5899 5899 5900 5900 5898 5898 5900 5902 5902 5902 5901 5902 5903 5904 5904 5904 5904 5904 5905 5907 5909 5911 5913 5914 5915 5916 5916 5917 5918 5919 5920 5921 5921 5922 5922 5923 5923 5924 5925 5925 5926 5927 5927 5927 5927 5927 5928 5928 5928 5929 5929 5929 5929 5929 5929 5928 5928 5927 5926 5926 5925 5925 5925 5924 5924 5923
5898 5897 5895 5895 5896 5894 5893 5893 5893 5892 5891 5891 5893 5896 5897 5897 5897 5897 5898 5898 5899 5900 5900 5899 5897 5900 5902 5902 5901 5901 5902 5903 5904 5904 5905 5905 5906 5907 5909 5910 5912 5913 5914 5915 5916 5917 5918 5919 5920 5921 5921 5922 5923 5923 5924 5924 5925 5926 5927 5927 5927 5927 5927 5928 5928 5928 5929 5929 5929 5929 5929 5929 5929 5929 5928 5928 5927 5927 5926 5926 5925 5925 5924 5924 5923
5898 5897 5895 5895 5896 5895 5894 5893 5893 5892 5891 5891 5892 5895 5896 5897 5897 5897 5898 5899 5899 5900 5900 5899 5899 5901 5902 5901 5900 5901 5902 5903 5904 5904 5905 5907 5908 5910 5911 5912 5913 5914 5915 5915 5916 5917 5919 5920 5921 5921 5922 5923 5924 5924 5925 5926 5926 5927 5928 5928 5928 5928 5928 5929 5929 5929 5929 5929 5929 5929 5929 5929 5929 5929 5929 5928 5927 5927 5927 5926 5926 5925 5924 5923 5923
5898 5897 5896 5895 5896 5895 5894 5894 5893 5892 5892 5892 5892 5894 5895 5897 5897 5897 5899 5900 5900 5900 5900 5900 5901 5902 5902 5901 5901 5901 5902 5903 5904 5905 5907 5908 5910 5911 5912 5913 5914 5915 5915 5916 5917 5918 5919 5920 5921 5922 5923 5923 5924 5925 5926 5927 5927 5928 5928 5928 5929 5929 5929 5930 5930 5930 5930 5930 5930 5930 5930 5930 5930 5929 5929 5928 5928 5927 5927 5926 5926 5925 5924 5923 5922
5897 5898 5897 5896 5896 5896 5895 5894 5894 5893 5893 5893 5893 5894 5895 5897 5897 5898 5899 5901 5902 5901 5901 5902 5903 5903 5903 5902 5902 5902 5903 5904 5905 5906 5908 5909 5910 5912 5913 5914 5915 5915 5916 5917 5918 5919 5920 5921 5922 5922 5923 5924 5925 5926 5926 5927 5928 5928 5929 5929 5929 5930 5930 5930 5931 5930 5930 5930 5930 5930 5930 5930 5930 5930 5929 5928 5928 5927 5927 5926 5925 5925 5924 5923 5922
5897 5897 5897 5896 5896 5896 5895 5895 5894 5894 5894 5894 5894 5895 5896 5897 5898 5898 5900 5902 5902 5902 5903 5904 5905 5904 5904 5903 5903 5904 5904 5905 5906 5907 5909 5910 5911 5913 5914 5915 5916 5916 5917 5918 5919 5920 5921 5921 5922 5923 5924 5925 5925 5926 5927 5928 5928 5929 5929 5930 5930 5931 5931 5931 5931 5931 5931 5931 5931 5931 5931 5931 5931 5930 5930 5929 5928 5927 5927 5926 5926 5925 5924 5923 5922
5896 5897 5896 5896 5896 5896 5896 5895 5895 5894 5894 5894 5894 5895 5896 5898 5898 5900 5901 5902 5902 5903 5904 5905 5905 5905 5904 5904 5904 5905 5906 5906 5907 5909 5910 5911 5912 5913 5914 5915 5916 5917 5918 5919 5920 5921 5921 5922 5923 5924 5925 5926 5926 5927 5928 5929 5929 5930 5930 5931 5931 5931 5931 5931 5931 5932 5931 5931 5931 5931 5931 5931 5931 5930 5930 5929 5928 5928 5927 5926 5926 5925 5924 5923 5922
5896 5896 5896 5896 5896 5897 5897 5896 5895 5895 5894 5894 5895 5896 5897 5899 5900 5901 5903 5903 5902 5903 5905 5905 5905 5905 5904 5905 5905 5906 5907 5908 5909 5910 5911 5912 5913 5914 5915 5916 5917 5918 5919 5920 5921 5921 5922 5923 5924 5925 5926 5927 5928 5928 5929 5930 5930 5931 5931 5931 5931 5931 5932 5932 5932 5932 5932 5932 5932 5932 5932 5931 5931 5930 5929 5929 5928 5927 5927 5926 5925 5924 5923 5922 5921
5896 5896 5895 5895 5896 5897 5897 5898 5897 5896 5895 5895 5896 5897 5898 5900 5901 5902 5903 5903 5903 5905 5906 5906 5906 5905 5905 5906 5906 5907 5908 5910 5911 5912 5912 5913 5914 5915 5915 5916 5918 5919 5920 5921 5922 5922 5923 5924 5925 5926 5927 5928 5929 5929 5930 5930 5931 5931 5931 5932 5932 5932 5932 5932 5932 5932 5932 5932 5932 5932 5932 5931 5930 5930 5929 5928 5928 5927 5927 5926 5925 5924 5923 5922 5921
5896 5896 5895 5895 5895 5896 5897 5898 5898 5898 5897 5897 5897 5898 5899 5900 5901 5902 5902 5903 5905 5906 5906 5907 5907 5906 5907 5907 5907 5908 5910 5911 5912 5913 5914 5914 5915 5916 5916 5918 5919 5920 5921 5922 5923 5924 5924 5925 5926 5927 5928 5929 5929 5930 5930 5931 5931 5931 5932 5932 5932 5932 5933 5932 5932 5932 5932 5932 5932 5932 5932 5931 5930 5930 5929 5928 5928 5927 5926 5925 5924 5923 5922 5921 5920
5897 5896 5896 5895 5895 5895 5896 5898 5898 5898 5898 5898 5898 5899 5899 5900 5901 5902 5903 5905 5906 5907 5907 5907 5907 5907 5908 5908 5909 5910 5911 5912 5913 5914 5915 5915 5916 5917 5918 5919 5920 5921 5922 5923 5924 5925 5925 5926 5927 5928 5929 5929 5930 5930 5930 5930 5931 5931 5932 5932 5933 5933 5933 5933 5933 5933 5933 5933 5933 5932 5932 5931 5930 5930 5929 5928 5927 5927 5926 5925 5924 5923 5922 5921 5920
5897 5897 5897 5896 5896 5896 5896 5897 5898 5898 5899 5899 5899 5900 5900 5901 5902 5903 5905 5906 5907 5907 5908 5908 5908 5908 5909 5909 5910 5911 5912 5913 5914 5915 5916 5917 5917 5918 5919 5920 5921 5922 5923 5924 5925 5925 5926 5927 5928 5929 5929 5930 5930 5930 5930 5931 5931 5932 5932 5933 5933 5933 5933 5933 5933 5933 5933 5933 5933 5933 5932 5931 5931 5930 5929 5928 5927 5926 5925 5924 5923 5923 5922 5921 5920
5898 5898 5898 5897 5897 5897 5897 5897 5898 5898 5899 5900 5900 5901 5902 5903 5904 5905 5906 5907 5907 5908 5908 5909 5909 5909 5910 5911 5912 5913 5914 5914 5915 5916 5917 5918 5918 5919 5920 5921 5922 5923 5924 5925 5925 5926 5927 5927 5928 5929 5930 5930 5930 5930 5931 5931 5932 5932 5933 5933 5933 5933 5933 5933 5934 5934 5934 5934 5933 5933 5932 5931 5931 5930 5929 5928 5927 5926 5925 5924 5923 5922 5921 5920 5919
5898 5898 5898 5898 5898 5898 5898 5898 5898 5899 5900 5901 5901 5902 5903 5904 5905 5906 5907 5907 5908 5908 5909 5909 5910 5910 5911 5912 5913 5914 5915 5915 5916 5917 5918 5919 5919 5920 5921 5922 5923 5924 5925 5926 5926 5927 5927 5928 5929 5929 5930 5930 5930 5931 5931 5932 5932 5933 5933 5933 5933 5934 5934 5934 5934 5934 5934 5934 5933 5933 5932 5931 5930 5930 5929 5928 5927 5926 5925 5924 5923 5922 5921 5920 5919
5899 5899 5899 5899 5899 5899 5899 5899 5899 5900 5900 5901 5902 5903 5904 5905 5906 5907 5907 5908 5909 5909 5910 5910 5910 5911 5912 5913 5914 5915 5916 5916 5917 5918 5919 5920 5921 5922 5922 5923 5924 5925 5926 5926 5927 5927 5928 5928 5929 5930 5930 5930 5931 5931 5932 5932 5933 5933 5933 5934 5934 5934 5934 5934 5934 5934 5934 5934 5933 5933 5932 5931 5931 5930 5929 5928 5927 5926 5925 5924 5924 5923 5921 5920 5919
5899 5899 5899 5899 5899 5900 5900 5900 5900 5901 5901 5902 5903 5903 5904 5905 5906 5907 5908 5909 5909 5910 5910 5911 5911 5912 5913 5914 5915 5916 5917 5918 5918 5919 5920 5921 5922 5923 5923 5924 5925 5926 5927 5927 5927 5928 5929 5929 5930 5930 5930 5931 5932 5932 5933 5933 5933 5933 5934 5934 5934 5934 5934 5934 5934 5934 5934 5934 5933 5933 5932 5932 5931 5930 5929 5929 5928 5927 5926 5925 5924 5923 5921 5920 5919
5900 5899 5899 5900 5900 5900 5901 5901 5901 5902 5902 5903 5903 5904 5905 5906 5907 5908 5909 5909 5910 5911 5911 5912 5913 5913 5914 5915 5916 5917 5918 5919 5920 5921 5922 5923 5923 5924 5924 5925 5926 5926 5927 5928 5928 5929 5929 5930 5930 5930 5931 5931 5932 5933 5933 5933 5933 5934 5934 5934 5934 5934 5934 5934 5934 5934 5934 5934 5933 5933 5932 5931 5931 5930 5930 5929 5928 5927 5926 5925 5924 5923 5921 5920 5920
5900 5900 5900 5900 5900 5901 5901 5901 5902 5903 5903 5904 5904 5905 5905 5906 5907 5908 5909 5910 5911 5912 5913 5913 5914 5914 5915 5916 5917 5918 5919 5920 5921 5922 5923 5924 5924 5925 5925 5926 5926 5927 5928 5928 5929 5929 5930 5930 5931 5931 5931 5932 5933 5933 5933 5933 5934 5934 5934 5934 5934 5934 5934 5934 5934 5934 5934 5934 5933 5933 5932 5931 5931 5930 5930 5928 5927 5927 5926 5925 5924 5923 5922 5921 5920
5901 5901 5900 5900 5901 5901 5902 5902 5903 5903 5904 5904 5905 5906 5906 5907 5908 5909 5910 5911 5912 5913 5913 5914 5915 5915 5916 5917 5918 5919 5920 5921 5923 5924 5924 5925 5925 5926 5926 5926 5927 5928 5928 5929 5930 5930 5930 5931 5931 5932 5932 5933 5933 5933 5934 5934 5934 5934 5934 5934 5935 5935 5935 5935 5934 5934 5934 5934 5933 5933 5932 5932 5931 5930 5929 5928 5927 5927 5926 5925 5924 5923 5923 5922 5921
5901 5901 5901 5901 5901 5902 5902 5903 5903 5904 5905 5905 5906 5907 5908 5908 5909 5910 5911 5912 5913 5914 5914 5915 5915 5916 5917 5918 5919 5920 5921 5922 5923 5924 5925 5926 5926 5927 5927 5927 5928 5928 5929 5930 5930 5931 5931 5931 5932 5932 5933 5934 5934 5934 5934 5935 5935 5935 5935 5935 5935 5935 5935 5935 5935 5935 5934 5934 5933 5933 5932 5932 5931 5930 5929 5928 5928 5927 5926 5925 5925 5924 5923 5922 5921
5902 5902 5902 5902 5902 5903 5903 5904 5904 5905 5905 5906 5907 5908 5909 5910 5910 5911 5912 5913 5913 5914 5915 5916 5916 5917 5918 5919 5920 5921 5922 5923 5924 5925 5926 5926 5927 5928 5928 5929 5929 5929 5930 5930 5931 5931 5932 5932 5933 5933 5934 5934 5934 5935 5935 5935 5935 5935 5935 5935 5935 5935 5935 5935 5935 5935 5934 5934 5933 5933 5932 5931 5931 5930 5929 5929 5928 5927 5926 5925 5925 5924 5924 5922 5921
5902 5902 5903 5903 5903 5903 5904 5905 5905 5906 5906 5907 5908 5909 5910 5911 5911 5912 5912 5913 5914 5915 5916 5916 5917 5918 5918 5919 5920 5921 5922 5923 5925 5925 5926 5927 5928 5928 5929 5930 5930 5930 5931 5931 5932 5932 5933 5933 5933 5934 5934 5934 5935 5935 5935 5935 5936 5936 5935 5935 5935 5935 5935 5935 5935 5934 5934 5933 5933 5932 5932 5931 5931 5930 5930 5929 5928 5927 5927 5926 5925 5925 5924 5923 5922
5902 5903 5903 5904 5904 5904 5905 5905 5906 5907 5907 5908 5909 5910 5911 5912 5912 5913 5913 5914 5915 5915 5916 5917 5918 5918 5919 5920 5921 5922 5923 5924 5925 5925 5926 5927 5928 5929 5930 5930 5931 5931 5932 5932 5933 5933 5934 5934 5934 5934 5934 5935 5935 5935 5936 5936 5936 5936 5935 5935 5935 5935 5935 5935 5935 5934 5934 5933 5932 5932 5931 5931 5931 5931 5930 5929 5928 5928 5927 5927 5926 5925 5924 5923 5922
5902 5903 5903 5904 5905 5905 5905 5906 5907 5907 5908 5909 5910 5911 5912 5912 5913 5914 5914 5914 5915 5916 5916 5917 5918 5919 5920 5921 5921 5922 5923 5924 5925 5925 5926 5927 5928 5929 5930 5931 5931 5932 5933 5933 5934 5934 5934 5934 5934 5935 5935 5935 5936 5936 5936 5936 5936 5936 5936 5935 5935 5935 5935 5935 5934 5934 5933 5933 5932 5932 5931 5931 5932 5931 5930 5930 5929 5928 5928 5927 5926 5925 5924 5923 5922
5902 5903 5903 5904 5905 5906 5906 5906 5907 5908 5909 5909 5910 5911 5912 5912 5913 5914 5914 5914 5915 5916 5917 5918 5919 5920 5920 5921 5922 5922 5923 5924 5925 5925 5926 5927 5927 5929 5930 5931 5932 5933 5933 5934 5934 5935 5935 5935 5935 5936 5936 5936 5936 5936 5936 5936 5936 5936 5936 5936 5936 5936 5936 5935 5935 5934 5934 5933 5933 5932 5932 5932 5932 5931 5930 5930 5929 5929 5928 5927 5926 5926 5925 5923 5923
5902 5903 5903 5904 5905 5906 5906 5907 5908 5908 5909 5910 5910 5911 5912 5912 5913 5914 5914 5915 5915 5916 5917 5918 5919 5920 5921 5921 5922 5922 5923 5924 5924 5925 5926 5927 5928 5929 5930 5931 5932 5933 5933 5934 5935 5935 5935 5936 5936 5936 5937 5937 5937 5937 5936 5936 5936 5936 5936 5936 5936 5936 5936 5936 5935 5935 5934 5933 5933 5933 5932 5932 5932 5931 5930 5930 5930 5929 5928 5928 5927 5926 5925 5924 5923
5902 5902 5903 5904 5905 5906 5906 5907 5908 5908 5909 5910 5911 5911 5912 5913 5914 5914 5915 5915 5916 5916 5917 5919 5920 5921 5921 5922 5922 5922 5923 5924 5925 5925 5926 5927 5928 5929 5930 5931 5931 5932 5933 5934 5935 5935 5935 5936 5936 5937 5937 5937 5937 5937 5936 5936 5936 5936 5936 5936 5936 5936 5936 5936 5935 5934 5934 5933 5933 5932 5932 5932 5932 5931 5930 5930 5930 5929 5929 5928 5927 5926 5925 5924 5923
5902 5902 5903 5904 5904 5905 5906 5907 5908 5908 5909 5910 5911 5912 5912 5913 5914 5915 5915 5916 5916 5917 5918 5919 5920 5921 5921 5922 5922 5922 5923 5924 5925 5925 5926 5927 5928 5928 5929 5930 5931 5932 5933 5934 5934 5935 5935 5936 5936 5937 5937 5937 5937 5936 5936 5936 5936 5936 5937 5937 5936 5936 5936 5936 5935 5934 5934 5933 5933 5932 5932 5932 5932 5931 5930 5930 5929 5929 5928 5928 5927 5926 5925 5924 5924
5901 5902 5903 5903 5904 5905 5906 5907 5908 5908 5909 5910 5910 5911 5912 5913 5914 5914 5915 5916 5916 5917 5918 5918 5919 5920 5921 5921 5921 5922 5923 5924 5925 5925 5926 5927 5927 5928 5929 5930 5931 5932 5933 5933 5934 5934 5935 5935 5936 5937 5937 5937 5936 5936 5936 5936 5936 5936 5937 5937 5936 5936 5936 5935 5935 5934 5934 5933 5932 5932 5932 5932 5931 5931 5930 5930 5929 5928 5928 5928 5927 5926 5925 5925 5924
5900 5901 5902 5903 5904 5905 5906 5906 5907 5908 5908 5909 5910 5911 5912 5913 5913 5914 5914 5915 5916 5916 5917 5918 5918 5919 5920 5920 5921 5921 5922 5923 5924 5925 5926 5927 5927 5928 5929 5930 5931 5931 5932 5933 5934 5934 5935 5935 5936 5936 5936 5936 5936 5936 5936 5936 5936 5936 5936 5936 5936 5936 5936 5935 5935 5934 5934 5933 5933 5932 5932 5931 5931 5931 5930 5930 5929 5928 5928 5927 5927 5926 5925 5924 5924
5900 5900 5901 5902 5903 5904 5905 5906 5907 5908 5908 5909 5909 5910 5911 5912 5913 5913 5914 5914 5915 5916 5916 5917 5918 5918 5919 5920 5920 5921 5922 5923 5924 5925 5926 5927 5928 5928 5929 5930 5930 5931 5932 5933 5933 5934 5934 5935 5936 5936 5936 5936 5936 5936 5936 5936 5936 5936 5936 5936 5936 5936 5936 5935 5935 5934 5934 5933 5933 5932 5931 5931 5931 5930 5930 5929 5929 5928 5928 5927 5926 5925 5925 5924 5924
5899 5899 5900 5901 5902 5903 5904 5905 5906 5907 5908 5908 5909 5910 5910 5911 5912 5913 5913 5914 5914 5915 5916 5917 5917 5918 5918 5919 5920 5921 5922 5923 5924 5925 5926 5927 5927 5928 5929 5929 5930 5931 5932 5932 5933 5933 5934 5935 5935 5936 5936 5936 5936 5936 5936 5936 5936 5936 5936 5936 5936 5935 5935 5935 5935 5934 5934 5933 5933 5932 5932 5931 5931 5930 5930 5929 5929 5928 5927 5927 5926 5926 5925 5924 5923